When you browse on this site, cookies collect data to enhance your experience and personalize the content and advertising you see.
Visit our Privacy Policy to learn more. By continuing to use the site, you agree to this use of cookies and data.
  • In Hungary
  • List of Countries
  • For 7 days
  • Water Temperature
  • Weather Map
  • News
  • Weather Widgets
  • user-avatar
    Login

    Hourly Weather Vyazovyy

    Today, 25 February, Tuesday

    Time Temperature Precipitation Wind Pressure Humidity
    00:00 -1°C° 1 mm 3 mps 730 mmHg 98%
    01:00 -1°C° 0.8 mm 3 mps 730 mmHg 98%
    02:00 -1°C° 0.8 mm 3 mps 729 mmHg 99%
    03:00 -1°C° 0 mm 2 mps 728 mmHg 99%
    04:00 -1°C° 1 mm 2 mps 728 mmHg 99%
    05:00 -1°C° 1 mm 2 mps 727 mmHg 99%
    06:00 -1°C° 1 mm 2 mps 727 mmHg 99%
    07:00 -1°C° 1.6 mm 2 mps 727 mmHg 99%
    08:00 -1°C° 1.6 mm 2 mps 727 mmHg 99%
    09:00 -1°C° 1.6 mm 3 mps 726 mmHg 99%
    10:00 -2°C° 1.3 mm 4 mps 726 mmHg 99%
    11:00 -3°C° 1.3 mm 6 mps 727 mmHg 98%
    12:00 -4°C° 1.3 mm 8 mps 727 mmHg 98%
    13:00 -4°C° 0.5 mm 8 mps 727 mmHg 97%
    14:00 -4°C° 0.5 mm 9 mps 728 mmHg 96%
    15:00 -4°C° 0.5 mm 9 mps 728 mmHg 95%
    16:00 -4°C° 0.1 mm 9 mps 729 mmHg 92%
    17:00 -5°C° 0.1 mm 8 mps 730 mmHg 88%
    18:00 -5°C° 0.1 mm 8 mps 731 mmHg 85%
    19:00 -6°C° 0 mm 7 mps 732 mmHg 84%
    20:00 -7°C° 0 mm 7 mps 733 mmHg 84%
    21:00 -6°C° 0 mm 6 mps 734 mmHg 83%
    22:00 -9°C° 0 mm 6 mps 734 mmHg 86%
    23:00 -10°C° 0 mm 5 mps 735 mmHg 88%

    Tomorrow, 26 February, Wednesday

    Time Temperature Precipitation Wind Pressure Humidity
    00:00 -10°C° 0 mm 4 mps 735 mmHg 90%
    01:00 -11°C° 0 mm 4 mps 736 mmHg 89%
    02:00 -11°C° 0 mm 4 mps 736 mmHg 89%
    03:00 -11°C° 0 mm 4 mps 736 mmHg 89%
    04:00 -12°C° 0 mm 3 mps 737 mmHg 88%
    05:00 -12°C° 0 mm 3 mps 737 mmHg 88%
    06:00 -12°C° 0 mm 3 mps 737 mmHg 88%
    07:00 -12°C° 0 mm 3 mps 737 mmHg 88%
    08:00 -10°C° 0 mm 3 mps 737 mmHg 89%
    09:00 -9°C° 0 mm 3 mps 737 mmHg 89%
    10:00 -8°C° 0 mm 3 mps 737 mmHg 89%
    11:00 -7°C° 0 mm 4 mps 737 mmHg 90%
    12:00 -5°C° 0 mm 4 mps 737 mmHg 90%
    13:00 -4°C° 0 mm 4 mps 737 mmHg 90%
    14:00 -4°C° 0 mm 5 mps 737 mmHg 90%
    15:00 -2°C° 0 mm 5 mps 737 mmHg 91%
    16:00 -2°C° 0 mm 5 mps 736 mmHg 92%
    17:00 -3°C° 0 mm 6 mps 736 mmHg 94%
    18:00 -2°C° 0 mm 6 mps 736 mmHg 95%
    19:00 -2°C° 0 mm 6 mps 736 mmHg 96%
    20:00 -2°C° 0 mm 6 mps 736 mmHg 97%
    21:00 -2°C° 0 mm 6 mps 735 mmHg 98%
    22:00 -2°C° 0 mm 6 mps 735 mmHg 97%
    23:00 -2°C° 0 mm 6 mps 735 mmHg 96%

    Day after tomorrow, 27 February, Thursday

    Time Temperature Precipitation Wind Pressure Humidity
    00:00 -2°C° 0 mm 6 mps 735 mmHg 95%
    01:00 -2°C° 0 mm 6 mps 734 mmHg 94%
    02:00 -2°C° 0 mm 6 mps 734 mmHg 92%
    03:00 -2°C° 0 mm 6 mps 734 mmHg 91%
    04:00 -2°C° 0 mm 6 mps 734 mmHg 91%
    05:00 -2°C° 0 mm 6 mps 734 mmHg 92%
    06:00 -2°C° 0 mm 6 mps 733 mmHg 93%
    07:00 -2°C° 0 mm 6 mps 733 mmHg 92%
    08:00 -2°C° 0 mm 6 mps 733 mmHg 90%
    09:00 -2°C° 0 mm 6 mps 733 mmHg 89%
    10:00 -2°C° 0 mm 6 mps 733 mmHg 90%
    11:00 -2°C° 0 mm 6 mps 733 mmHg 90%
    12:00 -2°C° 0 mm 6 mps 733 mmHg 91%
    13:00 -2°C° 0 mm 6 mps 733 mmHg 92%
    14:00 -2°C° 0 mm 6 mps 732 mmHg 92%
    15:00 -2°C° 0 mm 6 mps 732 mmHg 93%
    16:00 -1°C° 0.4 mm 6 mps 732 mmHg 95%
    17:00 -1°C° 0.4 mm 6 mps 732 mmHg 96%
    18:00 -1°C° 0.4 mm 7 mps 731 mmHg 97%
    19:00 -1°C° 0.1 mm 6 mps 731 mmHg 97%
    20:00 -1°C° 0.1 mm 6 mps 731 mmHg 98%
    21:00 -1°C° 0.1 mm 6 mps 731 mmHg 98%
    22:00 -1°C° 0 mm 6 mps 731 mmHg 98%
    23:00 -1°C° 0 mm 6 mps 731 mmHg 98%

    28 February, Friday

    Time Temperature Precipitation Wind Pressure Humidity
    00:00 -1°C° 0 mm 6 mps 731 mmHg 98%
    01:00 0°C° 0 mm 5 mps 731 mmHg 98%
    02:00 0°C° 0 mm 5 mps 731 mmHg 99%
    03:00 0°C° 0 mm 4 mps 731 mmHg 99%
    04:00 0°C° 0.4 mm 4 mps 731 mmHg 99%
    05:00 0°C° 0.4 mm 4 mps 731 mmHg 99%
    06:00 0°C° 0.4 mm 4 mps 731 mmHg 99%
    07:00 0°C° 0.6 mm 4 mps 731 mmHg 99%
    08:00 +1°C° 0.6 mm 5 mps 731 mmHg 99%
    09:00 +1°C° 0.6 mm 6 mps 731 mmHg 100%
    10:00 +1°C° 1 mm 6 mps 731 mmHg 100%
    11:00 +1°C° 1 mm 6 mps 731 mmHg 99%
    12:00 +1°C° 1 mm 6 mps 731 mmHg 99%
    13:00 +1°C° 1 mm 6 mps 731 mmHg 99%
    14:00 +1°C° 1 mm 6 mps 731 mmHg 99%
    15:00 +1°C° 1 mm 6 mps 731 mmHg 99%
    16:00 +1°C° 1.4 mm 5 mps 731 mmHg 99%
    17:00 +1°C° 1.4 mm 4 mps 732 mmHg 99%
    18:00 +1°C° 1.4 mm 3 mps 732 mmHg 99%
    19:00 0°C° 0.8 mm 4 mps 732 mmHg 99%
    20:00 -1°C° 0.8 mm 4 mps 733 mmHg 98%
    21:00 -2°C° 0.8 mm 5 mps 733 mmHg 98%
    22:00 -2°C° 0.4 mm 5 mps 733 mmHg 98%
    23:00 -2°C° 0.4 mm 5 mps 733 mmHg 97%

    29 February, Saturday

    Time Temperature Precipitation Wind Pressure Humidity
    00:00 -2°C° 0.4 mm 5 mps 734 mmHg 97%
    01:00 -2°C° 0.5 mm 5 mps 734 mmHg 95%
    02:00 -4°C° 0.5 mm 5 mps 734 mmHg 93%
    03:00 -4°C° 0.5 mm 5 mps 735 mmHg 92%
    04:00 -4°C° 0 mm 4 mps 735 mmHg 91%
    05:00 -5°C° 0 mm 4 mps 735 mmHg 90%
    06:00 -7°C° 0 mm 4 mps 736 mmHg 90%
    07:00 -6°C° 0 mm 3 mps 736 mmHg 90%
    08:00 -6°C° 0 mm 3 mps 736 mmHg 90%
    09:00 -6°C° 0 mm 3 mps 737 mmHg 90%
    10:00 -5°C° 0 mm 3 mps 737 mmHg 89%
    11:00 -3°C° 0 mm 2 mps 737 mmHg 88%
    12:00 -2°C° 0 mm 2 mps 738 mmHg 87%
    13:00 -2°C° 0 mm 2 mps 738 mmHg 88%
    14:00 -2°C° 0 mm 2 mps 738 mmHg 88%
    15:00 -2°C° 0 mm 2 mps 738 mmHg 89%
    16:00 -3°C° 0 mm 2 mps 738 mmHg 88%
    17:00 -2°C° 0 mm 1 mps 739 mmHg 88%
    18:00 -4°C° 0 mm 1 mps 739 mmHg 87%
    19:00 -4°C° 0 mm 1 mps 739 mmHg 86%
    20:00 -5°C° 0 mm 0 mps 739 mmHg 86%
    21:00 -5°C° 0 mm 0 mps 740 mmHg 85%
    22:00 -3°C° 0 mm 1 mps 740 mmHg 84%
    23:00 -3°C° 0 mm 1 mps 740 mmHg 84%

    1 March, Sunday

    Time Temperature Precipitation Wind Pressure Humidity
    00:00 -3°C° 0 mm 1 mps 741 mmHg 84%
    01:00 -4°C° 0 mm 1 mps 741 mmHg 83%
    02:00 -6°C° 0 mm 2 mps 741 mmHg 83%
    03:00 -7°C° 0 mm 2 mps 741 mmHg 82%
    04:00 -7°C° 0 mm 2 mps 741 mmHg 83%
    05:00 -7°C° 0 mm 2 mps 741 mmHg 83%
    06:00 -7°C° 0 mm 2 mps 741 mmHg 83%
    07:00 -6°C° 0 mm 2 mps 742 mmHg 85%
    08:00 -6°C° 0 mm 2 mps 742 mmHg 86%
    09:00 -5°C° 0 mm 2 mps 742 mmHg 88%
    10:00 -5°C° 0 mm 3 mps 743 mmHg 87%
    11:00 -4°C° 0 mm 3 mps 743 mmHg 86%
    12:00 -2°C° 0 mm 3 mps 743 mmHg 86%
    13:00 -2°C° 0 mm 3 mps 743 mmHg 87%
    14:00 -2°C° 0 mm 3 mps 743 mmHg 89%
    15:00 -2°C° 0 mm 3 mps 744 mmHg 91%
    16:00 -2°C° 0.1 mm 2 mps 744 mmHg 92%
    17:00 -3°C° 0.1 mm 2 mps 744 mmHg 93%
    18:00 -3°C° 0.1 mm 2 mps 744 mmHg 94%
    19:00 -3°C° 0 mm 2 mps 745 mmHg 93%
    20:00 -4°C° 0 mm 2 mps 745 mmHg 92%
    21:00 -2°C° 0 mm 1 mps 745 mmHg 91%
    22:00 -3°C° 0 mm 1 mps 745 mmHg 90%
    23:00 -3°C° 0 mm 1 mps 745 mmHg 90%
    Show more